• In Netherlands
  • List of Countries
  • For 7 days
  • Water Temperature
  • Satellite Maps
  • Weather Map
  • Weather Widgets
  • user-avatar
    Login

    Hourly Weather Durres

    Today, 22 June, Thursday

    Time Temperature Precipitation Wind Pressure Humidity
    00:00 +21°C° 0 mm 1 mps 760 mmHg 81%
    01:00 +21°C° 0 mm 1 mps 760 mmHg 81%
    02:00 +20°C° 0 mm 1 mps 760 mmHg 81%
    03:00 +20°C° 0 mm 1 mps 760 mmHg 82%
    04:00 +19°C° 0 mm 2 mps 760 mmHg 82%
    05:00 +22°C° 0 mm 1 mps 761 mmHg 72%
    06:00 +25°C° 0 mm 1 mps 761 mmHg 61%
    07:00 +28°C° 0 mm 1 mps 761 mmHg 51%
    08:00 +30°C° 0 mm 1 mps 761 mmHg 46%
    09:00 +31°C° 0 mm 2 mps 761 mmHg 41%
    10:00 +34°C° 0 mm 2 mps 761 mmHg 37%
    11:00 +34°C° 0 mm 3 mps 761 mmHg 35%
    12:00 +35°C° 0 mm 3 mps 761 mmHg 34%
    13:00 +36°C° 0 mm 4 mps 761 mmHg 33%
    14:00 +35°C° 0 mm 4 mps 761 mmHg 35%
    15:00 +34°C° 0 mm 4 mps 761 mmHg 37%
    16:00 +34°C° 0 mm 4 mps 761 mmHg 39%
    17:00 +30°C° 0 mm 3 mps 761 mmHg 49%
    18:00 +28°C° 0 mm 3 mps 761 mmHg 60%
    19:00 +25°C° 0 mm 2 mps 761 mmHg 70%
    20:00 +24°C° 0 mm 2 mps 761 mmHg 72%
    21:00 +23°C° 0 mm 1 mps 761 mmHg 75%
    22:00 +22°C° 0 mm 1 mps 762 mmHg 78%
    23:00 +22°C° 0 mm 1 mps 762 mmHg 78%

    Tomorrow, 23 June, Friday

    Time Temperature Precipitation Wind Pressure Humidity
    00:00 +22°C° 0 mm 1 mps 762 mmHg 79%
    01:00 +21°C° 0 mm 1 mps 762 mmHg 80%
    02:00 +21°C° 0 mm 1 mps 762 mmHg 80%
    03:00 +21°C° 0 mm 1 mps 761 mmHg 81%
    04:00 +20°C° 0 mm 1 mps 761 mmHg 81%
    05:00 +23°C° 0 mm 1 mps 761 mmHg 70%
    06:00 +26°C° 0 mm 1 mps 762 mmHg 60%
    07:00 +27°C° 0 mm 0 mps 762 mmHg 49%
    08:00 +31°C° 0 mm 1 mps 762 mmHg 44%
    09:00 +32°C° 0 mm 1 mps 762 mmHg 38%
    10:00 +34°C° 0 mm 1 mps 762 mmHg 33%
    11:00 +35°C° 0 mm 2 mps 762 mmHg 32%
    12:00 +36°C° 0 mm 3 mps 761 mmHg 31%
    13:00 +36°C° 0 mm 3 mps 761 mmHg 30%
    14:00 +36°C° 0 mm 3 mps 761 mmHg 32%
    15:00 +35°C° 0 mm 3 mps 760 mmHg 34%
    16:00 +34°C° 0 mm 3 mps 760 mmHg 36%
    17:00 +30°C° 0 mm 2 mps 760 mmHg 46%
    18:00 +28°C° 0 mm 2 mps 760 mmHg 57%
    19:00 +25°C° 0 mm 1 mps 760 mmHg 67%
    20:00 +24°C° 0 mm 1 mps 761 mmHg 70%
    21:00 +23°C° 0 mm 1 mps 761 mmHg 73%
    22:00 +19°C° 0 mm 0 mps 761 mmHg 77%
    23:00 +19°C° 0 mm 0 mps 761 mmHg 77%

    Day after tomorrow, 24 June, Saturday

    Time Temperature Precipitation Wind Pressure Humidity
    00:00 +19°C° 0 mm 0 mps 761 mmHg 77%
    01:00 +18°C° 0 mm 0 mps 761 mmHg 77%
    02:00 +18°C° 0 mm 0 mps 761 mmHg 77%
    03:00 +20°C° 0 mm 1 mps 760 mmHg 77%
    04:00 +20°C° 0 mm 1 mps 760 mmHg 77%
    05:00 +23°C° 0 mm 1 mps 760 mmHg 65%
    06:00 +26°C° 0 mm 1 mps 760 mmHg 54%
    07:00 +29°C° 0 mm 1 mps 761 mmHg 42%
    08:00 +31°C° 0 mm 1 mps 760 mmHg 38%
    09:00 +33°C° 0 mm 1 mps 760 mmHg 34%
    10:00 +35°C° 0 mm 1 mps 760 mmHg 30%
    11:00 +36°C° 0 mm 2 mps 760 mmHg 29%
    12:00 +37°C° 0 mm 3 mps 760 mmHg 29%
    13:00 +37°C° 0 mm 4 mps 759 mmHg 28%
    14:00 +36°C° 0 mm 4 mps 759 mmHg 31%
    15:00 +36°C° 0 mm 4 mps 759 mmHg 33%
    16:00 +35°C° 0 mm 3 mps 759 mmHg 36%
    17:00 +31°C° 0 mm 3 mps 759 mmHg 47%
    18:00 +29°C° 0 mm 2 mps 759 mmHg 57%
    19:00 +26°C° 0 mm 2 mps 759 mmHg 68%
    20:00 +25°C° 0 mm 1 mps 759 mmHg 69%
    21:00 +24°C° 0 mm 1 mps 759 mmHg 69%
    22:00 +24°C° 0 mm 1 mps 760 mmHg 70%
    23:00 +23°C° 0 mm 1 mps 759 mmHg 72%

    25 June, Sunday

    Time Temperature Precipitation Wind Pressure Humidity
    00:00 +23°C° 0 mm 1 mps 759 mmHg 74%
    01:00 +23°C° 0 mm 1 mps 759 mmHg 76%
    02:00 +20°C° 0 mm 0 mps 759 mmHg 78%
    03:00 +20°C° 0 mm 0 mps 759 mmHg 80%
    04:00 +20°C° 0 mm 0 mps 759 mmHg 81%
    05:00 +23°C° 0 mm 0 mps 759 mmHg 71%
    06:00 +26°C° 0 mm 0 mps 759 mmHg 60%
    07:00 +28°C° 0 mm 0 mps 759 mmHg 49%
    08:00 +32°C° 0 mm 1 mps 759 mmHg 44%
    09:00 +34°C° 0 mm 1 mps 759 mmHg 39%
    10:00 +35°C° 0 mm 1 mps 759 mmHg 33%
    11:00 +37°C° 0 mm 2 mps 758 mmHg 31%
    12:00 +37°C° 0 mm 2 mps 758 mmHg 29%
    13:00 +38°C° 0 mm 3 mps 758 mmHg 27%
    14:00 +37°C° 0 mm 3 mps 758 mmHg 29%
    15:00 +36°C° 0 mm 2 mps 757 mmHg 30%
    16:00 +36°C° 0 mm 2 mps 757 mmHg 31%
    17:00 +32°C° 0 mm 2 mps 757 mmHg 43%
    18:00 +29°C° 0 mm 1 mps 758 mmHg 54%
    19:00 +26°C° 0 mm 1 mps 758 mmHg 66%
    20:00 +25°C° 0 mm 1 mps 758 mmHg 66%
    21:00 +24°C° 0 mm 1 mps 758 mmHg 65%
    22:00 +23°C° 0 mm 1 mps 758 mmHg 65%
    23:00 +22°C° 0 mm 1 mps 758 mmHg 68%

    26 June, Monday

    Time Temperature Precipitation Wind Pressure Humidity
    00:00 +22°C° 0 mm 1 mps 758 mmHg 72%
    01:00 +19°C° 0 mm 0 mps 758 mmHg 75%
    02:00 +19°C° 0 mm 0 mps 758 mmHg 74%
    03:00 +21°C° 0 mm 1 mps 758 mmHg 74%
    04:00 +21°C° 0 mm 1 mps 758 mmHg 73%
    05:00 +24°C° 0 mm 1 mps 758 mmHg 61%
    06:00 +27°C° 0 mm 1 mps 758 mmHg 50%
    07:00 +31°C° 0 mm 1 mps 758 mmHg 38%
    08:00 +32°C° 0 mm 1 mps 758 mmHg 35%
    09:00 +34°C° 0 mm 1 mps 758 mmHg 31%
    10:00 +36°C° 0 mm 1 mps 758 mmHg 28%
    11:00 +37°C° 0 mm 2 mps 758 mmHg 27%
    12:00 +38°C° 0 mm 3 mps 758 mmHg 26%
    13:00 +38°C° 0 mm 3 mps 758 mmHg 26%
    14:00 +37°C° 0 mm 3 mps 757 mmHg 28%
    15:00 +37°C° 0 mm 3 mps 757 mmHg 30%
    16:00 +36°C° 0 mm 3 mps 757 mmHg 33%
    17:00 +32°C° 0 mm 2 mps 757 mmHg 44%
    18:00 +29°C° 0 mm 2 mps 758 mmHg 55%
    19:00 +26°C° 0 mm 1 mps 758 mmHg 66%
    20:00 +25°C° 0 mm 1 mps 758 mmHg 66%
    21:00 +24°C° 0 mm 1 mps 758 mmHg 67%
    22:00 +21°C° 0 mm 0 mps 759 mmHg 68%
    23:00 +21°C° 0 mm 0 mps 759 mmHg 69%

    27 June, Tuesday

    Time Temperature Precipitation Wind Pressure Humidity
    00:00 +21°C° 0 mm 0 mps 758 mmHg 71%
    01:00 +20°C° 0 mm 0 mps 758 mmHg 73%
    02:00 +22°C° 0 mm 1 mps 758 mmHg 72%
    03:00 +22°C° 0 mm 1 mps 758 mmHg 71%
    04:00 +22°C° 0 mm 1 mps 758 mmHg 69%
    05:00 +25°C° 0 mm 1 mps 758 mmHg 60%
    06:00 +28°C° 0 mm 1 mps 758 mmHg 51%
    07:00 +31°C° 0 mm 1 mps 759 mmHg 42%
    08:00 +33°C° 0 mm 1 mps 759 mmHg 38%
    09:00 +34°C° 0 mm 1 mps 759 mmHg 35%
    10:00 +36°C° 0 mm 2 mps 759 mmHg 32%
    11:00 +37°C° 0 mm 2 mps 758 mmHg 31%
    12:00 +37°C° 0 mm 3 mps 758 mmHg 30%
    13:00 +38°C° 0 mm 3 mps 758 mmHg 29%
    14:00 +37°C° 0 mm 3 mps 758 mmHg 30%
    15:00 +37°C° 0 mm 3 mps 758 mmHg 32%
    16:00 +36°C° 0 mm 3 mps 757 mmHg 33%
    17:00 +33°C° 0 mm 3 mps 757 mmHg 43%
    18:00 +29°C° 0 mm 2 mps 758 mmHg 53%
    19:00 +27°C° 0 mm 2 mps 758 mmHg 63%
    20:00 +26°C° 0 mm 2 mps 758 mmHg 64%
    21:00 +25°C° 0 mm 3 mps 758 mmHg 65%
    22:00 +24°C° 0 mm 3 mps 758 mmHg 67%
    23:00 +22°C° 0 mm 3 mps 758 mmHg 69%
    Show more